Dauntless Aviation
Airports Asia Japan
RJDA
AXJ

Amakusa Airport

Amakusa, JAPAN

Airport Info
Suggest Updated Information for this Airport

Location

Latitude / Longitude: 32°28'57"N / 130°9'32"E
  32°28.95'N / 130°9.54'E
  32.4825 / 130.1590

Nearby radio navigation aids

AKE AMAKUSA VOR/DME on field.

Runway Information

Runway 13 /31

Dimensions: 3281 x 98 ft.
Surface: ASP
 
Runway 13
Runway 31
Latitude: 32.485058 32.479944
Longitude: 130.154486 130.16325
Elevation: 340 ft. 340 ft.
Runway true heading: 124.1 304.1
 

Instrument Procedures

  Aerodrome/Heliport Chart

STARs (Standard Terminal Arrivals)

  STAR - Instrument (IRUKA/ TSUJI - RNAV)

IAPs (Instrument Approach Procedures)

  VOR Rwy 31
  (RNAV (GNSS) Rwy 13)
  (RNAV (GNSS) Rwy 31)
  Other Chart (Visual Rep)
  Other Chart (Ldg Chart)
  Other Chart (MVA Chart)

Departure Procedures

  SID - Instrument (AMAKUSA Reversal)
  SID - Instrument (HABOH - RNAV)
Satellite photo at:
Airport distance calculator
From:
Weather Reports

METAR

RJFU
28.8nm NW
RJFU 182300Z 11003KT 080V150 CAVOK 18/12 Q1020
RJFT
39.6nm NE
RJFT 182300Z VRB01KT CAVOK 19/10 Q1020

TAF

RJFU
28.8nm NW
TAF RJFU 181705Z 1818/2000 14004KT CAVOK BECMG 1902/1904 32008KT BECMG 1912/1915 14004KT
RJFT
39.6nm NE
TAF RJFT 181705Z 1818/2000 06004KT CAVOK BECMG 1900/1902 24008KT BECMG 1909/1912 06004KT
Safelog

 

Dauntless Aviation

© 2007-2022 Dauntless Aviation, all rights reserved
Information provided via PilotNav comes from a variety of official and unofficial data sources. As errors are possible, do not use PilotNav for primary flight planning purposes. Verify any information that you receive via PilotNav with current and canonical charts and other official documents. The material in this database is subject to database copyrights held by Dauntless Aviation and may not be copied without the express permission of Dauntless Aviation - licenses for use of part of all of this data are available for purchase; enquire via the Dauntless Aviation helpdesk. A number of mechanisms and markers exist in the database to protect against and identify infringement / copyright. Automated queries against this website are strictly prohibited, and all activity is logged and analyzed.